Location: Bukovany
(49.8234°N, 14.6297°E)
Time: 17:41:57
(UTC+00:00)

ISS - Pass Details

Date: 17 November 2025
Orbit: 416 x 420 km, 51.6° (Epoch: 09 December)

Event Time Altitude Azimuth Distance (km) Brightness Sun altitude
Rises 17:09:43 0° 246° (WSW) 2,363 1.5 -18.2°
Reaches altitude 10° 17:11:49 10° 244° (WSW) 1,500 0.2 -18.5°
Maximum altitude 17:15:11 75° 159° (SSE) 438 -3.8 -19.1°
Enters shadow 17:15:23 71° 120° (ESE) 447 -3.9 -19.1°
